This demonstration page uses our WeatherBlox Daily Observations layout. Learn more.

Left ArrowRight Arrow

Hourly Observations for July 1, 2019

Temp ( °F °C ) Dew Point ( °F °C ) Humidity (%) Winds ( mph kmh ) Pressure ( in mb ) Visibility ( mi km ) Precip ( " mm )
12:53 am 00:53 Clear 63 17.2 50 10 63 63 SSE 5 7 30.03 1017 10 16 0.00 0.00
1:53 am 01:53 Clear 59 15 52 11.1 78 78 ESE 5 7 30.02 1017 10 16 0.00 0.00
2:53 am 02:53 Clear 57 13.9 52 11.1 83 83 ESE 5 7 30.01 1016 10 16 0.00 0.00
3:53 am 03:53 Clear 56 13.3 51 10.6 84 84 ENE 3 6 29.99 1016 10 16 0.00 0.00
4:53 am 04:53 Clear 53 11.7 51 10.6 93 93 Calm 29.99 1016 10 16 0.00 0.00
5:53 am 05:53 Sunny 50 10 49 9.4 96 96 SSW 5 7 29.99 1016 10 16 0.00 0.00
6:53 am 06:53 Sunny 55 12.8 52 11.1 90 90 Calm 29.97 1015 10 16 0.00 0.00
7:53 am 07:53 Sunny 59 15 54 12.2 83 83 SW 3 6 29.97 1015 10 16 0.00 0.00
8:53 am 08:53 Sunny 67 19.4 55 12.8 66 66 VRB 7 11 29.96 1015 10 16 0.00 0.00
9:53 am 09:53 Sunny 72 22.2 55 12.8 55 55 Calm 29.92 1013 10 16 0.00 0.00
10:53 am 10:53 Mostly Sunny 71 21.7 57 13.9 61 61 S 7 11 29.92 1013 10 16 0.00 0.00
11:53 am 11:53 Partly Cloudy 72 22.2 58 14.4 61 61 W 8 13 29.91 1013 10 16 0.00 0.00
12:53 pm 12:53 Sunny 77 25 51 10.6 40 40 WSW 7 11 29.86 1011 10 16 0.00 0.00
1:53 pm 13:53 Sunny 81 27.2 50 10 34 34 WSW 17 28 29.83 1010 10 16 0.00 0.00
2:53 pm 14:53 Sunny 79 26.1 51 10.6 38 38 WSW 16 26 29.82 1010 10 16 0.00 0.00
3:53 pm 15:53 Mostly Sunny 77 25 54 12.2 45 45 W 15 24 29.80 1009 10 16 0.00 0.00
4:53 pm 16:53 Mostly Sunny 84 28.9 39 3.9 20 20 W 23 37 29.78 1008 10 16 0.00 0.00
5:53 pm 17:53 Sunny 83 28.3 43 6.1 24 24 WSW 21 33 29.77 1008 10 16 0.00 0.00
6:53 pm 18:53 Sunny 82 27.8 42 5.6 24 24 WSW 18 30 29.76 1008 10 16 0.00 0.00
7:53 pm 19:53 Sunny 79 26.1 48 8.9 34 34 W 7 11 29.76 1008 10 16 0.00 0.00
8:53 pm 20:53 Sunny 73 22.8 42 5.6 33 33 WNW 9 15 29.78 1008 10 16 0.00 0.00
9:53 pm 21:53 Clear 66 18.9 44 6.7 45 45 NW 6 9 29.82 1010 10 16 0.00 0.00
10:53 pm 22:53 Clear 60 15.6 50 10 70 70 NNE 18 30 29.90 1012 10 16 0.00 0.00
11:17 pm 23:17 Clear 59 15 50 10 72 72 ENE 12 19 29.91 1013 10 16 0.00 0.00
11:53 pm 23:53 Clear 58 14.4 49 9.4 72 72 N 7 11 29.95 1014 10 16 0.00 0.00

Powered by AerisWeather